Flag for Faroe Islands Weather past 2 weeks in Tórshavn, Faroe Islands, Faroe Islands

Now
45 °F

Overcast.


Feels Like: 37 °F
Forecast: 42 / 48 °F
Wind: 16 mph from West

Location: Soervaag / Vagar

Current Time: Dec 29, 2014 at 4:02:22 AM

Latest Report: Dec 29, 2014 at 3:20 AM


Visibility: N/A

Pressure: 30.33 "Hg

Humidity: 66%

Dew point: 34 °F

Location of TórshavnLocation

Historic Weather in Tórshavn — Graph

°F

Tórshavn temperature yesterday

Maximum temperature yesterday: 43 °F (at 6:50 PM)
Minimum temperature yesterday: 32 °F (at 2:20 AM)
Average temperature yesterday: 38 °F

Past Weeks' High & Low Weather Summary

 TemperatureHumidityPressure
High46 °F (Dec 21, 3:20 AM)100% (Dec 17, 1:20 AM)30.42 "Hg (Dec 17, 1:20 AM)
Low27 °F (Dec 25, 7:20 AM)37% (Dec 15, 8:20 AM)28.50 "Hg (Dec 14, 11:50 AM)
Average37 °F80%29.43 "Hg
* Reported Dec 14 2:20 AM — Dec 29 2:20 AM, Tórshavn, Weather by CustomWeather, © 2014

Note: Actual official high and low records may vary slightly from our data, if they occured in-between our weather recording intervals... More about our weather records

Advertising

Tórshavn weather history for previous 24 hours

 ConditionsComfort  
Time TempWeatherWind HumidityBarometerVisibility
2:20 AM
Dec 29
43 °FPassing clouds.15 mph71%30.36 "HgN/A
1:50 AM43 °FPassing clouds.18 mph71%30.36 "HgN/A
1:20 AM45 °FOvercast.16 mph71%30.36 "HgN/A
12:50 AM43 °FPassing clouds.20 mph76%30.36 "HgN/A
12:20 AM43 °FPassing clouds.23 mph71%30.36 "HgN/A
11:50 PM
Dec 28
43 °FOvercast.20 mph71%30.36 "HgN/A
11:20 PM43 °FPassing clouds.20 mph71%30.36 "HgN/A
10:50 PM43 °FPassing clouds.17 mph71%30.36 "HgN/A
10:20 PM43 °FPassing clouds.20 mph71%30.36 "HgN/A
9:20 PM43 °FOvercast.18 mph71%30.36 "HgN/A
8:50 PM43 °FOvercast.17 mph71%30.39 "HgN/A
8:20 PM43 °FOvercast.20 mph66%30.36 "HgN/A
7:50 PM43 °FOvercast.20 mph71%30.36 "HgN/A
7:20 PM43 °FOvercast.20 mph66%30.36 "HgN/A
6:50 PM43 °FOvercast.20 mph66%30.36 "HgN/A
6:20 PM41 °FSprinkles. Passing clouds.15 mph70%30.36 "HgN/A
5:50 PM41 °FOvercast.16 mph66%30.39 "HgN/A
5:20 PM41 °FOvercast.16 mph70%30.39 "HgN/A
4:50 PM41 °FPassing clouds.15 mph70%30.39 "HgN/A
4:20 PM41 °FPassing clouds.14 mph70%30.39 "HgN/A
3:50 PM39 °FPassing clouds.14 mph70%30.39 "HgN/A
3:20 PM39 °FPassing clouds.16 mph70%30.39 "HgN/A
2:50 PM39 °FPartly sunny.13 mph70%30.39 "HgN/A
2:20 PM39 °FPartly sunny.10 mph70%30.39 "HgN/A
1:50 PM39 °FPartly sunny.13 mph70%30.39 "HgN/A
1:20 PM39 °FPartly sunny.13 mph65%30.39 "HgN/A
12:50 PM37 °FPartly sunny.12 mph70%30.42 "HgN/A
12:20 PM39 °FPartly sunny.13 mph70%30.42 "HgN/A
11:50 AM37 °FPartly sunny.10 mph75%30.42 "HgN/A
11:20 AM37 °FPartly sunny.9 mph70%30.42 "HgN/A
10:50 AM37 °FPartly sunny.3 mph70%30.42 "HgN/A
10:20 AM37 °FPartly sunny.7 mph70%30.42 "HgN/A
9:50 AM36 °FPassing clouds.8 mph75%30.42 "HgN/A
9:20 AM36 °FPartly cloudy.7 mph75%30.42 "HgN/A
8:50 AM36 °FPartly cloudy.5 mph70%30.42 "HgN/A
8:20 AM36 °FOvercast.6 mph70%30.42 "HgN/A
7:50 AM36 °FPassing clouds.5 mph70%30.39 "HgN/A
7:20 AM36 °FPassing clouds.6 mph70%30.39 "HgN/A
6:50 AM34 °FPartly cloudy.5 mph75%30.39 "HgN/A
6:20 AM34 °FPassing clouds.6 mph75%30.39 "HgN/A
5:50 AM34 °FPassing clouds.1 mph75%30.39 "HgN/A
5:20 AM34 °FPassing clouds.No wind75%30.39 "HgN/A
4:50 AM34 °FPassing clouds.1 mph70%30.39 "HgN/A
4:20 AM32 °FPassing clouds.1 mph75%30.39 "HgN/A
Weather by CustomWeather, © 2014

See weather overviewHow to use our weather pages